This is the latest recevied weather packets stored in our database for station/object N4CRH-13. If no packets are shown the sender has not sent any weather packets the latest 10 day(s).
| Time | Temp. | Humidity | Pressure | Rain* | Wind** | Luminosity | Snow |
|---|---|---|---|---|---|---|---|
| 1777900896 | 13.89° C | 32% | 1289.4 hPa | 0 mm | - | 118 W/m² | - |
| 1777900593 | 13.33° C | 31% | 1289.5 hPa | 0 mm | - | 102 W/m² | - |
| 1777900290 | 13.89° C | 31% | 1289.7 hPa | 0 mm | - | 96 W/m² | - |
| 1777899987 | 13.89° C | 32% | 1289.5 hPa | 0 mm | - | 101 W/m² | - |
| 1777899684 | 13.33° C | 31% | 1289.5 hPa | 0 mm | - | 82 W/m² | - |
| 1777899381 | 13.33° C | 31% | 1289.7 hPa | 0 mm | - | 90 W/m² | - |
| 1777899079 | 12.78° C | 31% | 1289.5 hPa | 0 mm | - | 61 W/m² | - |
| 1777898775 | 12.22° C | 31% | 1289.5 hPa | 0 mm | - | 45 W/m² | - |
| 1777898473 | 11.67° C | 32% | 1289.4 hPa | 0 mm | - | 42 W/m² | - |
| 1777898171 | 11.67° C | 33% | 1289.6 hPa | 0 mm | - | 28 W/m² | - |
| 1777897868 | 10.56° C | 35% | 1289.6 hPa | 0 mm | - | 22 W/m² | - |
| 1777897564 | 9.44° C | 38% | 1289.5 hPa | 0 mm | - | 17 W/m² | - |
| 1777897259 | 8.89° C | 38% | 1289.5 hPa | 0 mm | - | 15 W/m² | - |
| 1777896955 | 7.78° C | 40% | 1289.5 hPa | 0 mm | - | 12 W/m² | - |
| 1777896653 | 6.67° C | 39% | 1289.6 hPa | 0 mm | - | 8 W/m² | - |
| 1777896350 | 5.56° C | 48% | 1289.5 hPa | 0 mm | - | 5 W/m² | - |
| 1777896048 | 6.11° C | 49% | 1289.6 hPa | 0 mm | - | 3 W/m² | - |
| 1777895745 | 5.56° C | 50% | 1289.6 hPa | 0 mm | - | 2 W/m² | - |
| 1777895442 | 6.11° C | 47% | 1289.4 hPa | 0 mm | - | 1 W/m² | - |
| 1777895140 | 6.11° C | 49% | 1289.5 hPa | 0 mm | - | 0 W/m² | - |
| 1777894837 | 5.56° C | 53% | 1289.1 hPa | 0 mm | - | 0 W/m² | - |
| 1777894534 | 6.11° C | 50% | 1289.5 hPa | 0 mm | - | 0 W/m² | - |
| 1777894232 | 5.56° C | 49% | 1289.5 hPa | 0 mm | - | 0 W/m² | - |
| 1777893928 | 5° C | 50% | 1289.6 hPa | 0 mm | - | 0 W/m² | - |
| 1777893624 | 5.56° C | 51% | 1289.6 hPa | 0 mm | - | 0 W/m² | - |
* Rain latest hour (hover to see other rain measurements)
** Current wind speed in m/s (hover to see current wind gust speed)